Showing default

ORS 5 SENSORSAT, 42921

Orbit data source: Space-Track

ORS 5 SENSORSAT, 42921 is a payload satellite owned by DoD ORS (US) in LEO that was launched on Sat, 26 Aug 2017 UTC via an MINOTAUR IV launch vehicle from the Air Force Eastern Test Range (AFETR). Payloads include a variety of satellites, spacecraft, and rockets equipped with specific instruments for various scientific and technological missions. These include communications satellites like Starlink; space stations such as the ISS; scientific satellites like the Hubble; Earth observation satellites from companies like Planet Labs, Umbra, and HawkEye 360; GPS; miniature CubeSats for education and research; and military/defense satellites.

Not visible in the next 10 days
ORS 5 SENSORSAT details
Identifier
42921, 2017-050A
Orbit
LEO
Last TLE update9 hours ago
Origin
Flag of USDoD ORS (US)
ManufacturerMIT-LL
MissionOperational Defense Early Warn
Bus & MotorORS-5, Unknown motor
Mass~110 kg wet, ~110 kg dry
Launch date (UTC)
2017-08-26 (7 years ago)
Launch vehicle
MINOTAUR IV
Launch site
Air Force Eastern Test Range (AFETR)
Object type
Payload
Rocket body
Debris
Shape & HBRBox + 2 Pan, 1.5 m
Radar Cross Section1.080 m², Medium (>0.1 m² and < 1m²)

Expand to show TLE details & history

TLE from 9 hours ago
0 ORS 5 SENSORSAT
1 42921U 17050A   24361.28773371  .00006148  00000-0  44309-3 0  9997
2 42921   0.0467 186.4536 0011250 337.0901 196.4928 14.97621894400714
Epoch: 2024-12-26T06:54Z
Definitive object data (Epoch: 2024-12-26T06:54:20.192Z)
Latitude0.00528°
Longitude161.1466°
Altitude578.59 km
Speed7.571 km/s
True Right ascension00h 00m 00s
True Declination0° 00' 19"
Sunlit
Object was in daylight at TLE epoch
Visualization TLE readout
Latitude0.03889°
Longitude108.80873°
Altitude577.167 km
Speed7.572 km/s
Apparent Right ascension23h 11m 51s
Apparent Declination-29° 18' 35"
Sunlit
Object is in daylight
Visualization observer readout
Local Sidereal Time15:38:36
Azimuth100.888° ESE
Elevation-35.364°
Doppler factor1
Orbital elements
Apogee altitude588.418 km
Perigee altitude572.761 km
Semi-major axis6,958.727 km
Eccentricity0.001125
Inclination0.0467°
RAAN186.4536°
Arg. of periapsis337.0901°
True anomaly196.45625°
Mean anomaly196.4928°
Eccentric anomaly196.47452°
Mean motion3.73894 °/min
BSTAR0.00044309
Orbital period96.28 mins
Loading maneuver chart data...
Loading historical data...
Loading historical data...
Loading historical data...
Loading historical data...
Loading historical data...
Loading historical data...
Loading historical data...

ORS 5 SENSORSAT Visibility forecast

Observer location: undefined°, undefined

ORS 5 SENSORSAT is not visible in the next 10 days
Span
Click to sort rows by Start time (UTC) header in descending order
Start Az.
Max El. time (UTC)
Max El. Az.
Max El.
End time (UTC)
End Az.
|